Location: Unspecified
(45.2733°N, 0.0000°E)
Time: 02:02:16
(UTC+00:00)

OTV 5 (USA 277) - Visible Passes

Search period start: 23 October 2019 00:00
Search period end: 02 November 2019 00:00
Orbit: 310 x 324 km, 54.5° (Epoch: 17 October)

Date Brightness Start Highest point End Pass type
(mag) Time Alt. Az. Time Alt. Az. Time Alt. Az.
27 Oct ? 18:23:44 10° S 18:24:02 11° SSE 18:24:02 11° SSE visible
28 Oct ? 18:37:18 10° SSW 18:38:40 24° SSW 18:38:40 24° SSW visible
29 Oct ? 18:51:39 10° WSW 18:53:10 29° WSW 18:53:10 29° WSW visible
30 Oct ? 17:32:29 10° SSW 17:34:46 24° SE 17:36:39 13° E visible
30 Oct ? 19:06:28 10° W 19:07:33 19° W 19:07:33 19° W visible
31 Oct ? 17:46:30 10° SW 17:49:12 66° SE 17:50:56 20° ENE visible
31 Oct ? 19:21:37 10° WNW 19:21:50 11° WNW 19:21:50 11° WNW visible
01 Nov ? 18:01:06 10° WSW 18:03:46 48° NNW 18:05:08 24° NNE visible
